San Francisco, CA

5:17 PM PDT on September 03, 2015 (GMT -0700)
Collingwood Hill/Noe Valley-Castro | | Change Station
CLOSE
Current Station
Personal Weather Station
Location: San Francisco, CA
Elevation: 348 ft
Nearby Weather Stations

Elev 348 ft 37.76 °N, 122.44 °W | Updated 2 seconds ago

Partly Cloudy
Partly Cloudy
61.9 °F
Feels Like 61.9 °F
N
19.0
Wind Variable Wind from West
Gusts 24.0 mph

Today
High -- | Low -- °F
--% Chance of Precip.
Yesterday
High -- | Low -- °F
Precip. -- in
6:41 AM 7:36 PM
Waning Gibbous, 65% visible
Pressure 29.88 in
Visibility 10.0 miles
Clouds Few 1800 ft
Scattered Clouds 2300 ft
Dew Point 56 °F
Humidity 80%
Rainfall 0.00 in
Snow Depth Not available.
UV 3 out of 12
Pollen 8.00 out of 12
Air Quality Not available.
Flu Activity Not available.
METAR KSFO 032356Z 25013KT 10SM FEW018 SCT023 19/12 A2987 RMK AO2 SLP116 T01890117 10206 20183 56014
Pressure 29.88 in
Visibility 10.0 miles
Clouds Few 1800 ft
Scattered Clouds 2300 ft
Dew Point 56 °F
Humidity 80%
Rainfall 0.00 in
Snow Depth Not available.
UV 3 out of 12
Pollen 8.00 out of 12
Air Quality Not available.
Flu Activity Not available.
METAR KSFO 032356Z 25013KT 10SM FEW018 SCT023 19/12 A2987 RMK AO2 SLP116 T01890117 10206 20183 56014

10-Day Weather Forecast

×

Almanac

Astronomy

Sep. 03, 2015 Rise Set
Actual Time
Civil Twilight
Nautical Twilight
Astronomical Twilight
Moon
Length of Visible Light
Length of Day
Tomorrow will be .
, % of the Moon is Illuminated

Today's Extremes

State Highs State Lows

Community

WunderPhotos

Upload Photos

1,852,068 photos uploaded!

WunderBlogs® & News

Nearby

Air Quality

  Air Quality AQ Index Pollutant
Not available.

Snow Depth

Station Depth Elevation

Earthquake Activity

City Distance Mag. Time & Date
Minimum magnitude displayed is 2.5.

Coastal Water Temperatures

Place Temperature

Stations

Nearby Weather Stations

Station Location Temp. Windchill Dew Point Humidity Wind Precip. Elev Updated Type